OPS 0856 DEB, 24647

Orbit data source: Space-Track

OPS 0856 DEB, 24647 is space debris in LEO originally from a launch on Fri, 19 Aug 1966 UTC launched from the Air Force Western Test Range (AFWTR). Debris objects in space refer to the collection of defunct objects orbiting the Earth. Examples of debris include non-operational satellites, rocket bodies, and fragments generated from explosions, collisions, or faulty payload assembly.

Loading next visibility...
Identifier
24647, 1966-077P
Orbit
LEO
Country
Flag of USUS
Related business
Manufacturer
Unknown
Mission
Spacecraft
Bus & Motor
Unknown
Mass
Unknown
Launch date (UTC)
1966-08-19 (60 years ago)
Launch vehicle
Unknown
Launch site
Air Force Western Test Range (AFWTR)
Object type
Payload
Rocket body
Debris
Shape & HBR
Unknown shape, 0.1 m
Radar Cross Section
Medium (>0.1 m² and <1 m²)

Expand to show TLE details & history
Last TLE update: 1 month ago

TLE from 1 month ago
0 OPS 0856 DEB
1 24647U 66077P   26216.49278785  .00002111  00000-0  18683-1 0  9998
2 24647  87.4061  48.4594 2195046 315.4885  48.1252  9.44529994573244
Epoch: 2026-08-04T11:49Z
TLE epoch observation values (Epoch: 2026-08-04T11:49:36.870Z)
Latitude
25.90587°
Longitude
-80.75007°
Altitude
2,006.053 km
Speed
7.278 km/s
True Right ascension
03h 18m 51s
True Declination
25° 47' 28"
Sunlit
Object was in daylight at epoch
Visualization orbit readout
Latitude
Unknown
Longitude
Unknown
Altitude
Unknown
Speed
Unknown
Apparent Right ascension
Unknown
Apparent Declination
Unknown
Sunlit
N/A
Visualization observer readout
Local Sidereal Time
15:34:41
Azimuth
Unknown
Elevation
Unknown
Doppler factor
Unknown
Orbital elements
Apogee altitude
5,147.383 km
Perigee altitude
998.313 km
Semi-major axis
9,450.985 km
Eccentricity
0.2195
Inclination
87.4061°
RAAN
48.4594°
Arg. of periapsis
315.4885°
True anomaly
70.41948°
Mean anomaly
48.1252°
Eccentric anomaly
58.89346°
Mean motion
2.36226 °/min
Orbital period
152.4 mins
BSTAR
0.018683
Loading maneuver chart data...
Computing Atmospheric mass density...
Loading historical data...
Loading historical data...
Loading historical data...
Loading historical data...
Loading historical data...
Loading historical data...
Loading historical data...

Documentation

Showing up to 5 results
|